Tracking 33199 objects as of 16-Feb-2026
HD Live streaming from Space Station
objects crossing your sky now

OICETS

Track OICETS now!
10-day predictions
OICETS is classified as:


NORAD ID: 28809
Int'l Code: 2005-031A
Perigee: 490.3 km
Apogee: 519.5 km
Inclination: 98.1 °
Period: 94.6 minutes
Semi major axis: 6875 km
RCS: 1.711 m2 (large)
Launch date: August 23, 2005
Source: Japan (JPN)
Launch site: TYURATAM MISSILE AND SPACE COMPLEX (TTMTR)

Study inter-satellite communications.
Your satellite tracking list
Your tracking list is empty




NASA's NSSDC Master Catalog

Two Line Element Set (TLE):
1 28809U 05031A   26047.27088291  .00005844  00000-0  25288-3 0  9991
2 28809  98.0813 293.2126 0021211  76.1073 284.2519 15.22677531120197
Source of the keplerian elements: AFSPC